Location: Domont
(49.0278°N, 2.3264°E)
Time: 13:22:45
(UTC+00:00)

NOAA 18 - Pass Details

Date: 30 June 2022
Orbit: 839 x 860 km, 98.9° (Epoch: 13 August)

Event Time Altitude Azimuth Distance (km) Brightness Sun altitude
Exits shadow 22:50:49 - 221° (SW) 2,798 7.6 -16.5°
Reaches altitude 10° 22:52:01 10° 229° (SW) 2,480 7.4 -16.5°
Maximum altitude 22:55:40 18° 271° (W) 1,988 7.3 -16.7°
Drops below altitude 10° 22:59:21 10° 313° (NW) 2,500 8.5 -16.8°
Sets 23:02:34 0° 332° (NNW) 3,446 9.9 -16.9°
